Terug naar catalogus

YAOGAN-43 O1J

ActiefMilitairVLEO
NORAD 60466·PAYLOAD·🇨🇳 China

Gelanceerd Aug 16, 2024 vanaf Xichang Satellite Launch Center

Loading…

Volgende Passages (komende 24 uur)

TLE

VersSource: Space-Track

Epoch: Sep 14, 2026, 12:35 UTC

1 60466U 24148J   26257.52487839  .00010993  00000-0  28230-3 0  9999
2 60466  34.9909 279.3012 0005959 355.8890   4.1779 15.38469791116197

Volg YAOGAN-43 O1J in realtime met AllMySat

Download on the App Store